User: anonymous
Location: Unspecified
(0.0000°N, 0.0000°E)
Time: 10:19:39
(UTC+00:00)
Language:

RESURS DK-1 - Orbit

View from above orbital plane
View from above orbital plane
View from above satellite
View from above satellite

Ground track
Ground track

The orbit data is extracted from the following two-line orbital elements,

1 29228U 06021A   14293.49833681  .00001234  00000-0  10427-3 0  3477
2 29228 069.9380 046.0197 0003972 351.2249 106.5614 15.00888570462371
Epoch (UTC): 20 October 2014 11:57:36
Eccentricity: 0.0003972
inclination: 69.9380°
perigee height: 561 km
apogee height: 567 km
right ascension of ascending node: 46.0197°
argument of perigee: 351.2249°
revolutions per day: 15.00888570
mean anomaly at epoch: 106.5614°
orbit number at epoch: 46237

The dashed part of the orbit path shows where the satellite is in the earth's shadow,  

DLR